TimeCDT,TemperatureF,Dew PointF,Humidity,Sea Level PressureIn,VisibilityMPH,Wind Direction,Wind SpeedMPH,Gust SpeedMPH,PrecipitationIn,Events,Conditions,WindDirDegrees,DateUTC
12:12 AM,42.8,37.4,81,30.32,10.0,East,5.8,-,N/A,,Clear,90,2013-05-24 05:12:00
12:33 AM,44.6,37.4,76,30.32,10.0,East,5.8,-,N/A,,Clear,90,2013-05-24 05:33:00
12:52 AM,46.4,37.4,71,30.32,10.0,East,5.8,-,N/A,,Clear,90,2013-05-24 05:52:00
1:12 AM,44.6,37.4,76,30.32,10.0,East,6.9,-,N/A,,Clear,90,2013-05-24 06:12:00
1:33 AM,46.4,35.6,66,30.32,10.0,East,5.8,-,N/A,,Clear,90,2013-05-24 06:33:00
1:52 AM,46.4,35.6,66,30.32,10.0,East,4.6,-,N/A,,Clear,100,2013-05-24 06:52:00
2:12 AM,48.2,35.6,62,30.32,10.0,ESE,8.1,-,N/A,,Clear,110,2013-05-24 07:12:00
2:33 AM,48.2,35.6,62,30.32,10.0,ESE,9.2,-,N/A,,Clear,110,2013-05-24 07:33:00
2:52 AM,46.4,35.6,66,30.32,10.0,ESE,8.1,-,N/A,,Clear,120,2013-05-24 07:52:00
3:12 AM,44.6,35.6,71,30.32,10.0,ESE,6.9,-,N/A,,Clear,110,2013-05-24 08:12:00
3:32 AM,46.4,35.6,66,30.32,10.0,ESE,6.9,-,N/A,,Clear,110,2013-05-24 08:32:00
3:52 AM,46.4,35.6,66,30.32,10.0,ESE,6.9,-,N/A,,Clear,110,2013-05-24 08:52:00
4:13 AM,46.4,33.8,62,30.32,10.0,East,8.1,-,N/A,,Clear,100,2013-05-24 09:13:00
4:32 AM,46.4,33.8,62,30.32,10.0,ESE,8.1,-,N/A,,Clear,110,2013-05-24 09:32:00
4:52 AM,44.6,33.8,66,30.32,10.0,ESE,9.2,-,N/A,,Clear,110,2013-05-24 09:52:00
5:13 AM,44.6,33.8,66,30.32,10.0,East,9.2,-,N/A,,Clear,100,2013-05-24 10:13:00
5:32 AM,44.6,33.8,66,30.31,10.0,East,9.2,-,N/A,,Clear,100,2013-05-24 10:32:00
5:52 AM,44.6,33.8,66,30.32,10.0,ESE,9.2,-,N/A,,Clear,110,2013-05-24 10:52:00
6:13 AM,44.6,33.8,66,30.32,10.0,ESE,10.4,-,N/A,,Clear,110,2013-05-24 11:13:00
6:32 AM,44.6,35.6,71,30.32,10.0,ESE,11.5,-,N/A,,Clear,110,2013-05-24 11:32:00
6:52 AM,46.4,35.6,66,30.32,10.0,ESE,9.2,-,N/A,,Clear,110,2013-05-24 11:52:00
7:13 AM,48.2,35.6,62,30.32,10.0,ESE,11.5,17.3,N/A,,Clear,110,2013-05-24 12:13:00
7:32 AM,48.2,35.6,62,30.33,10.0,SE,9.2,-,N/A,,Clear,130,2013-05-24 12:32:00
7:52 AM,51.8,35.6,54,30.32,10.0,SE,11.5,-,N/A,,Clear,140,2013-05-24 12:52:00
8:13 AM,53.6,35.6,51,30.32,10.0,SE,16.1,-,N/A,,Clear,130,2013-05-24 13:13:00
8:32 AM,53.6,37.4,54,30.33,10.0,SE,12.7,-,N/A,,Clear,130,2013-05-24 13:32:00
8:52 AM,55.4,37.4,51,30.32,10.0,SE,12.7,-,N/A,,Clear,140,2013-05-24 13:52:00
9:13 AM,57.2,35.6,44,30.32,10.0,SE,15.0,21.9,N/A,,Clear,140,2013-05-24 14:13:00
9:32 AM,57.2,35.6,44,30.32,10.0,SSE,16.1,20.7,N/A,,Clear,150,2013-05-24 14:32:00
9:53 AM,60.8,35.6,39,30.31,10.0,SSE,17.3,25.3,N/A,,Clear,150,2013-05-24 14:53:00
10:13 AM,60.8,35.6,39,30.31,10.0,SSE,17.3,25.3,N/A,,Clear,160,2013-05-24 15:13:00
10:32 AM,60.8,37.4,42,30.31,10.0,SSE,16.1,23.0,N/A,,Clear,160,2013-05-24 15:32:00
10:53 AM,62.6,37.4,39,30.29,10.0,SSE,12.7,19.6,N/A,,Clear,150,2013-05-24 15:53:00
11:12 AM,64.4,37.4,37,30.29,10.0,SSE,15.0,20.7,N/A,,Clear,160,2013-05-24 16:12:00
11:32 AM,64.4,37.4,37,30.29,10.0,SSE,16.1,-,N/A,,Clear,160,2013-05-24 16:32:00
11:52 AM,64.4,39.2,40,30.27,10.0,SE,17.3,23.0,N/A,,Clear,140,2013-05-24 16:52:00
12:12 PM,66.2,37.4,35,30.26,10.0,SSE,18.4,24.2,N/A,,Clear,160,2013-05-24 17:12:00
12:33 PM,66.2,37.4,35,30.26,10.0,SSE,17.3,26.5,N/A,,Clear,150,2013-05-24 17:33:00
12:52 PM,66.2,37.4,35,30.25,10.0,SSE,18.4,26.5,N/A,,Clear,160,2013-05-24 17:52:00
1:12 PM,68.0,39.2,35,30.24,10.0,SSE,16.1,21.9,N/A,,Clear,150,2013-05-24 18:12:00
1:33 PM,69.8,37.4,31,30.23,10.0,SE,16.1,24.2,N/A,,Clear,140,2013-05-24 18:33:00
1:53 PM,68.0,37.4,33,30.22,10.0,SSE,15.0,25.3,N/A,,Clear,150,2013-05-24 18:53:00
2:12 PM,69.8,37.4,31,30.21,10.0,SE,18.4,27.6,N/A,,Clear,130,2013-05-24 19:12:00
2:33 PM,69.8,37.4,31,30.20,10.0,SE,19.6,28.8,N/A,,Clear,140,2013-05-24 19:33:00
2:52 PM,69.8,37.4,31,30.20,10.0,SSE,19.6,27.6,N/A,,Clear,150,2013-05-24 19:52:00
3:12 PM,69.8,37.4,31,30.19,10.0,SSE,16.1,25.3,N/A,,Scattered Clouds,150,2013-05-24 20:12:00
3:33 PM,69.8,37.4,31,30.15,10.0,SE,18.4,23.0,N/A,Thunderstorm,Scattered Clouds,140,2013-05-24 20:33:00
3:53 PM,68.0,39.2,35,30.16,10.0,SSE,19.6,26.5,N/A,,Scattered Clouds,150,2013-05-24 20:53:00
4:12 PM,69.8,41.0,35,30.17,10.0,SE,16.1,25.3,N/A,,Clear,140,2013-05-24 21:12:00
4:33 PM,69.8,41.0,35,30.22,10.0,South,4.6,-,N/A,Thunderstorm,Scattered Clouds,180,2013-05-24 21:33:00
4:53 PM,69.8,44.6,40,30.25,10.0,SSW,13.8,18.4,N/A,Thunderstorm,Thunderstorm,200,2013-05-24 21:53:00
5:12 PM,62.6,48.2,59,30.23,10.0,South,8.1,-,N/A,Rain-Thunderstorm,Light Thunderstorms and Rain,170,2013-05-24 22:12:00
5:33 PM,60.8,48.2,63,30.15,10.0,East,19.6,-,0.04,Rain-Thunderstorm,Heavy Thunderstorms and Rain,100,2013-05-24 22:33:00
5:53 PM,60.8,50.0,68,30.17,10.0,East,10.4,-,0.04,Rain-Thunderstorm,Light Thunderstorms and Rain,100,2013-05-24 22:53:00
6:12 PM,60.8,50.0,68,30.17,10.0,ESE,12.7,-,N/A,Rain-Thunderstorm,Light Thunderstorms and Rain,120,2013-05-24 23:12:00
6:33 PM,57.2,51.8,82,30.17,10.0,ESE,10.4,-,0.01,Rain-Thunderstorm,Light Thunderstorms and Rain,120,2013-05-24 23:33:00
6:53 PM,57.2,53.6,88,30.15,10.0,East,10.4,-,0.06,Rain-Thunderstorm,Heavy Thunderstorms and Rain,80,2013-05-24 23:53:00
7:12 PM,57.2,53.6,88,30.17,10.0,ENE,10.4,-,N/A,Rain-Thunderstorm,Light Thunderstorms and Rain,70,2013-05-25 00:12:00
7:33 PM,57.2,53.6,88,30.16,10.0,East,8.1,-,N/A,Rain-Thunderstorm,Light Thunderstorms and Rain,90,2013-05-25 00:33:00
7:53 PM,59.0,53.6,82,30.14,10.0,ESE,13.8,-,N/A,Thunderstorm,Overcast,120,2013-05-25 00:53:00
8:12 PM,59.0,53.6,82,30.12,10.0,ESE,17.3,21.9,N/A,,Mostly Cloudy,120,2013-05-25 01:12:00
8:33 PM,57.2,51.8,82,30.12,10.0,ESE,13.8,-,N/A,Thunderstorm,Scattered Clouds,120,2013-05-25 01:33:00
8:53 PM,57.2,51.8,82,30.13,10.0,ESE,12.7,19.6,N/A,,Mostly Cloudy,120,2013-05-25 01:53:00
9:12 PM,59.0,51.8,77,30.14,10.0,SE,10.4,-,N/A,,Overcast,140,2013-05-25 02:12:00
9:33 PM,60.8,51.8,72,30.15,10.0,SSE,11.5,-,N/A,,Overcast,160,2013-05-25 02:33:00
9:53 PM,60.8,50.0,68,30.15,10.0,SSE,16.1,20.7,N/A,,Overcast,150,2013-05-25 02:53:00
10:12 PM,60.8,51.8,72,30.15,10.0,SSE,17.3,21.9,N/A,,Overcast,150,2013-05-25 03:12:00
10:33 PM,60.8,51.8,72,30.16,10.0,SE,13.8,21.9,N/A,,Overcast,140,2013-05-25 03:33:00
10:53 PM,60.8,51.8,72,30.15,10.0,SE,15.0,23.0,N/A,,Overcast,140,2013-05-25 03:53:00
11:12 PM,60.8,50.0,68,30.15,10.0,SE,15.0,21.9,N/A,,Overcast,140,2013-05-25 04:12:00
11:33 PM,60.8,50.0,68,30.15,10.0,SE,17.3,20.7,N/A,,Overcast,140,2013-05-25 04:33:00
11:53 PM,60.8,50.0,68,30.16,10.0,SSE,16.1,23.0,N/A,,Overcast,150,2013-05-25 04:53:00